Location: Unspecified
(0.0000°N, 0.0000°E)
Time: 04:53:09
(UTC+00:00)

Tiros 1 despin weight - Pass Details

Date: 02 October 2020
Orbit: 594 x 641 km, 48.2° (Epoch: 28 October)

Event Time Altitude Azimuth Distance (km) Brightness Sun altitude
Rises 20:13:02 0° 287° (WNW) 2,929 ? -35.9°
Reaches altitude 10° 20:16:20 10° 263° (W) 2,024 ? -36.7°
Enters shadow 20:18:26 14° 236° (SW) 1,758 ? -37.2°
Maximum altitude 20:18:52 14° 230° (SW) 1,749 - -37.3°
Drops below altitude 10° 20:21:24 10° 197° (SSW) 2,025 - -38.0°
Sets 20:24:44 0° 172° (S) 2,931 - -38.8°
